Tracking 31027 objects as of 19-Jul-2025
HD Live streaming from Space Station
objects crossing your sky now

STARLINK-30327

Track STARLINK-30327 now!
10-day predictions
STARLINK-30327 is classified as:


NORAD ID: 57707
Int'l Code: 2023-129K
Perigee: 561.0 km
Apogee: 564.9 km
Inclination: 43.0 °
Period: 95.8 minutes
Semi major axis: 6933 km
RCS: Unknown
Launch date: August 27, 2023
Source: United States (US)
Launch site: AIR FORCE EASTERN TEST RANGE (AFETR)
Your satellite tracking list
FENGYUN 1C DEB
Track 1 satellite(s)




NASA's NSSDC Master Catalog

Two Line Element Set (TLE):
1 57707U 23129K   25199.55673556  .00018385  00000-0  13343-2 0  9992
2 57707  43.0037 299.8965 0002802 307.4195  52.6393 15.03599739105447
Source of the keplerian elements: AFSPC